Regional Weather Roundup
Issued by NWS

Home | Current Version | Previous Version | Graphics & Text | Print | Product List | Glossary On
Versions: 1 2 3 4 5 6 7 8 9 10 11 12 13 14 15 16 17 18 19 20 21 22 23 24 25 26 27 28 29 30 31 32 33 34 35 36 37 38 39 40 41 42 43 44 45 46 47 48 49 50
000
ASUS43 KOAX 302010
RWRNE

WEATHER ROUNDUP FOR NEBRASKA
NATIONAL WEATHER SERVICE OMAHA NE
300 PM CDT WED JUL 30 2014

NOTES: SATELLITE DATA IS BEING USED TO AUGMENT CLOUD COVER ABOVE
       12000 FEET.
       "FAIR" INDICATES FEW OR NO CLOUDS BELOW 12,000 FEET WITH NO
       SIGNIFICANT WEATHER AND/OR OBSTRUCTIONS TO VISIBILITY.

  * THESE STATIONS DO NOT REPORT WEATHER SUCH AS RAIN...SNOW OR FOG.

NEZ001>004-019>022-054>056-302100-
NEBRASKA PANHANDLE

CITY           SKY/WX    TMP DP  RH WIND       PRES   REMARKS
SCOTTSBLUFF    CLOUDY    75  54  47 MISG      30.26S
ALLIANCE       PTSUNNY   77  50  38 NE7       30.24S
CHADRON        PTSUNNY   80  48  32 SW8       30.19F
KIMBALL        CLOUDY    66  56  70 SW9       30.31S
SIDNEY         CLOUDY    73  55  53 S7        30.29F
$$

NEZ057>060-069>072-079>082-302100-
SOUTHWEST NEBRASKA

CITY           SKY/WX    TMP DP  RH WIND       PRES   REMARKS
NORTH PLATTE   MOSUNNY   82  50  32 NE7       30.18F
IMPERIAL       PTSUNNY   75  56  51 VRB3      30.23F
LEXINGTON      CLOUDY    77  55  47 SE3       30.18S
MCCOOK         PTSUNNY   78  56  46 SE8       30.20F
OGALLALA       PTSUNNY   76  54  47 S5        30.22S
$$

NEZ005>010-023>029-035>040-094-302100-
NORTH CENTRAL NEBRASKA

CITY           SKY/WX    TMP DP  RH WIND       PRES   REMARKS
VALENTINE      MOSUNNY   86  49  27 NE5       30.16F
AINSWORTH      PTSUNNY   78  49  36 SW5       30.17F
BROKEN BOW     MOSUNNY   81  53  37 VRB7      30.17F
O`NEILL        PTSUNNY   78  56  46 NE7       30.16S
ORD            MOSUNNY   78  55  44 SW3       30.15F
THEDFORD       PTSUNNY   82  51  34 CALM      30.20F
$$

NEZ041-046>049-061>064-073>077-083>087-302100-
SOUTH CENTRAL NEBRASKA

CITY           SKY/WX    TMP DP  RH WIND       PRES   REMARKS
GRAND ISLAND   SUNNY     80  55  42 VRB5      30.16F
AURORA         PTSUNNY   78  54  44 E3        30.16F
HASTINGS       MOSUNNY   76  52  43 NE7       30.17F
HEBRON         MOSUNNY   80  48  32 E6        30.15S
HOLDREGE       MOSUNNY   77  55  46 E5        30.17F
KEARNEY *      MOSUNNY   79  55  44 NE7       30.17F
YORK           PTSUNNY   75  55  50 N6        30.16S
$$

NEZ011>018-030>034-042>045-302100-
NORTHEAST NEBRASKA

CITY           SKY/WX    TMP DP  RH WIND       PRES   REMARKS
NORFOLK        PTSUNNY   80  53  39 NE6       30.14F
ALBION         MOSUNNY   77  55  46 CALM      30.16S
BLAIR          PTSUNNY   78  50  37 N5        30.14S
COLUMBUS *     PTSUNNY   79  54  41 N5        30.15S
FREMONT        MOSUNNY   80  50  35 N5        30.14S
TEKAMAH        MOSUNNY   81  52  36 E7        30.12F
WAYNE          SUNNY     78  54  43 NE3       30.14F
$$

NEZ050>053-065>068-078-088>093-302100-
SOUTHEAST NEBRASKA

CITY           SKY/WX    TMP DP  RH WIND       PRES   REMARKS
LINCOLN        MOSUNNY   81  49  32 N7        30.14F
OMAHA EPPLEY   MOSUNNY   81  53  37 N8        30.12F
BEATRICE       MOSUNNY   78  55  44 NE6       30.13F
FALLS CITY     PTSUNNY   80  54  40 NE9       30.11F
NEBRASKA CITY  MOSUNNY   78  51  38 CALM      30.13S
PLATTSMOUTH    MOSUNNY   79  47  32 N7        30.13S
$$

NEZ044-045-051>053-067-302100-
OMAHA AREA

CITY           SKY/WX    TMP DP  RH WIND       PRES   REMARKS
OMAHA EPPLEY   MOSUNNY   81  53  37 N8        30.12F
BLAIR          PTSUNNY   78  50  37 N5        30.14S
FREMONT        MOSUNNY   80  50  35 N5        30.14S
MILLARD        MOSUNNY   79  51  38 CALM      30.12S
OFFUTT AFB     SUNNY     81  53  37 N7        30.12F
PLATTSMOUTH    MOSUNNY   79  47  32 N7        30.13S
WAHOO          MOCLDY    80  53  39 NE6       30.14S
$$



USA.gov is the U.S. government's official web portal to all federal, state and local government web resources and services.